# Total inorganic carbon (TCO2) in a unit kg  of seawater measured onboard R/V Mirai (NODC Code: unknown) of the Japan Marine Science and Technology Center (JAMSTEC).,,,,,,,,,,,,,,,,,
# Cruise = MR02-K6,,,,,,,,,,,,,,,,,
# Measured on board by Meteorological Research Institute with an automated coulometric system manufactured by Nippon ANS Co. ,,,,,,,,,,,,,,,,,
"# Batches of Certified Reference Material for TCO2 analysis provided by Dr A. G. Dickson have been used for quality control. Significant offset, if any, has been corrected for.",,,,,,,,,,,,,,,,,
"# Total alkalinity (TA) has been calculated from TCO2, SST, salinity and pCO2 that have been concurrently measured using carbonic acid dissociation constants given by Roy et al., 1993.",,,,,,,,,,,,,,,,,
# Date and Time = UTC,,,,,,,,,,,,,,,,,
"# Quality flag (F); good=2, questionable=3, bad =4, not reported = 5, no data =9",,,,,,,,,,,,,,,,,
#,,,,,,,,,,,,,,,,,
Ship,Cruise,No.,Date,,,Time,,Latitude,Longitude,TCO2,F,TA_calcd,F,SST,F,SSS,F
,,,year,month,day,hour,min,deg,deg,umol/kg,,umol/kg,,degC,,,
Mirai,MR02-K6,1,2002,11,16,5,42,29.18,140.48,1967.2,2,2330,2,25.43,2,35.063,2
Mirai,MR02-K6,2,2002,11,16,6,15,29.05,140.44,1966.8,2,2322.9,2,25.1,2,34.975,2
Mirai,MR02-K6,3,2002,11,16,7,13,28.8,140.37,1964.6,3,2315.9,3,24.89,2,34.906,2
Mirai,MR02-K6,4,2002,11,16,7,45,28.67,140.33,1966.8,2,2320.8,2,25.13,2,34.984,2
Mirai,MR02-K6,5,2002,11,16,8,40,28.44,140.27,1962.5,2,2311.3,2,24.74,2,34.838,2
Mirai,MR02-K6,6,2002,11,16,9,12,28.3,140.23,1967.7,2,2318.5,3,24.65,2,34.865,2
Mirai,MR02-K6,7,2002,11,16,10,9,28.07,140.16,1960.9,3,2313.3,3,24.97,2,34.824,2
Mirai,MR02-K6,8,2002,11,16,10,41,27.94,140.12,1963.2,2,2315.2,3,24.91,2,34.817,2
Mirai,MR02-K6,9,2002,11,16,13,10,27.32,139.96,1953.7,3,2309.9,3,25.4,2,34.86,2
Mirai,MR02-K6,10,2002,11,16,13,43,27.18,139.91,1963.3,3,2315.9,3,25.12,2,34.838,2
Mirai,MR02-K6,11,2002,11,16,14,41,26.94,139.85,1960.3,3,2315.6,3,25.35,2,34.834,2
Mirai,MR02-K6,12,2002,11,16,15,13,26.8,139.81,1965.3,3,2317.3,3,24.99,2,34.847,2
Mirai,MR02-K6,13,2002,11,16,16,8,26.57,139.74,1964.9,3,2316,3,25.07,2,34.845,2
Mirai,MR02-K6,14,2002,11,16,16,40,26.43,139.7,1958.9,3,2317.5,3,25.48,2,34.879,2
Mirai,MR02-K6,15,2002,11,16,17,37,26.19,139.63,1957.3,3,2317.1,3,25.71,2,34.913,2
Mirai,MR02-K6,16,2002,11,16,18,9,26.05,139.59,1961.6,3,2320,3,25.51,2,34.918,2
Mirai,MR02-K6,17,2002,11,16,19,7,25.8,139.53,1959.8,3,2319.9,3,25.7,2,34.9,2
Mirai,MR02-K6,18,2002,11,16,19,39,25.66,139.5,1958.6,3,2322,3,26.07,2,34.922,2
Mirai,MR02-K6,19,2002,11,16,20,34,25.43,139.44,1957.7,3,2320.8,3,26.04,2,34.916,2
Mirai,MR02-K6,20,2002,11,16,21,6,25.29,139.4,1958.5,3,2322.2,3,26,2,34.909,2
Mirai,MR02-K6,21,2002,11,17,1,12,24.56,139.2,1957.2,2,2316.3,3,26.27,2,34.831,2
Mirai,MR02-K6,22,2002,11,17,1,45,24.42,139.16,1957.1,2,2314,3,26.28,2,34.828,2
Mirai,MR02-K6,23,2002,11,17,2,42,24.18,139.1,1950.9,2,2308.4,2,26.4,2,34.832,2
Mirai,MR02-K6,24,2002,11,17,3,15,24.04,139.06,1953.4,2,2310.5,3,26.44,2,34.834,2
Mirai,MR02-K6,25,2002,11,17,4,10,23.82,139,1956.2,2,2314.4,2,26.5,2,34.83,2
Mirai,MR02-K6,26,2002,11,17,4,42,23.71,138.97,1956.7,2,2313.3,2,26.58,2,34.841,2
Mirai,MR02-K6,27,2002,11,17,5,39,23.53,138.92,1954.8,2,2311.3,2,26.64,2,34.834,2
Mirai,MR02-K6,28,2002,11,17,6,11,23.4,138.88,1957,2,2313.5,2,26.78,2,34.836,2
Mirai,MR02-K6,29,2002,11,17,7,9,23.17,138.82,1957.2,2,2313.6,2,26.92,2,34.874,2
Mirai,MR02-K6,30,2002,11,17,7,41,23.03,138.79,1947.9,2,2318.6,2,27.13,2,34.912,2
Mirai,MR02-K6,31,2002,11,17,8,36,22.8,138.73,1948.4,3,2320.1,3,27.1,2,34.92,2
Mirai,MR02-K6,32,2002,11,17,9,8,22.67,138.7,1946.9,3,2319.6,3,27.16,2,34.918,2
Mirai,MR02-K6,33,2002,11,17,10,5,22.43,138.64,1941.3,3,2315.6,3,27.39,2,34.909,2
Mirai,MR02-K6,34,2002,11,17,10,38,22.3,138.6,1946.2,3,2319.8,3,27.17,2,34.916,2
Mirai,MR02-K6,35,2002,11,17,14,40,21.29,138.33,1937,3,2311.4,3,28.05,2,34.804,2
Mirai,MR02-K6,36,2002,11,17,15,13,21.16,138.3,1936.4,3,2312.7,3,28.1,2,34.786,2
Mirai,MR02-K6,37,2002,11,17,16,11,20.92,138.24,1938.2,3,2315.9,3,28.01,2,34.823,2
Mirai,MR02-K6,38,2002,11,17,16,43,20.79,138.21,1938.7,3,2314.1,3,27.97,2,34.819,2
Mirai,MR02-K6,39,2002,11,17,17,38,20.57,138.16,1935.6,3,2311.5,3,28.05,2,34.816,2
Mirai,MR02-K6,40,2002,11,17,18,10,20.44,138.12,1935.2,3,2310.5,3,28.09,2,34.783,2
Mirai,MR02-K6,41,2002,11,17,19,7,20.21,138.06,1935.4,3,2311.4,3,28.13,2,34.785,2
Mirai,MR02-K6,42,2002,11,17,20,37,20,137.99,1936,3,2312.3,3,28.06,2,34.771,2
Mirai,MR02-K6,43,2002,11,17,21,9,19.99,137.98,1934.8,2,2313.2,2,28.07,2,34.778,2
Mirai,MR02-K6,44,2002,11,17,22,4,19.78,137.89,1937.7,2,2315.8,2,28.23,2,34.846,2
Mirai,MR02-K6,45,2002,11,17,22,36,19.65,137.83,1933.1,2,2314.5,2,28.55,2,34.81,2
Mirai,MR02-K6,46,2002,11,17,23,33,19.44,137.73,1931.8,2,2312.2,2,28.67,2,34.793,2
Mirai,MR02-K6,47,2002,11,18,0,6,19.32,137.67,1930.2,2,2310,2,28.79,2,34.781,2
Mirai,MR02-K6,48,2002,11,18,1,3,19.09,137.58,1925.3,3,2304.5,3,28.87,2,34.698,2
Mirai,MR02-K6,49,2002,11,18,1,36,18.96,137.52,1922.8,2,2303.3,3,28.94,2,34.659,2
Mirai,MR02-K6,50,2002,11,18,3,3,18.64,137.37,1930.5,3,2308.9,3,28.78,2,34.779,2
Mirai,MR02-K6,51,2002,11,18,3,59,18.43,137.29,1928.5,3,2306.8,3,28.83,2,34.748,2
Mirai,MR02-K6,52,2002,11,18,4,32,18.3,137.24,1922.4,3,2300.7,3,29.11,2,34.643,2
Mirai,MR02-K6,53,2002,11,18,5,29,18.09,137.14,1921,3,2299.2,3,29.15,2,34.636,2
Mirai,MR02-K6,54,2002,11,18,6,2,17.97,137.09,1921.9,3,2300.9,3,29.21,2,34.627,2
Mirai,MR02-K6,55,2002,11,18,10,10,17.06,136.66,1928,3,2308.3,3,29.2,2,34.779,2
Mirai,MR02-K6,56,2002,11,18,10,43,16.98,136.62,1928.2,3,2307.8,3,29.19,2,34.765,2
Mirai,MR02-K6,57,2002,11,18,11,41,16.98,136.58,1928.5,3,2308.9,3,29.17,2,34.797,2
Mirai,MR02-K6,58,2002,11,18,12,13,16.9,136.53,1928.7,3,2309.5,3,29.18,2,34.795,2
Mirai,MR02-K6,59,2002,11,18,13,8,16.7,136.45,1926.7,3,2307,3,29.14,2,34.807,2
Mirai,MR02-K6,60,2002,11,18,13,40,16.58,136.41,1930.1,3,2309.5,3,29.12,2,34.803,2
Mirai,MR02-K6,61,2002,11,18,14,37,16.37,136.33,1926.8,3,2307.8,3,29.11,2,34.815,2
Mirai,MR02-K6,62,2002,11,18,15,9,16.25,136.27,1924.3,3,2303.4,3,29.15,2,34.784,2
Mirai,MR02-K6,63,2002,11,18,16,7,16.04,136.18,1928.8,3,2309.1,3,29.12,2,34.817,2
Mirai,MR02-K6,64,2002,11,18,17,34,15.72,136.05,1924.1,3,2303.2,3,29.03,2,34.759,2
Mirai,MR02-K6,65,2002,11,18,18,6,15.62,136.03,1926.2,2,2307.6,2,29.08,2,34.748,2
Mirai,MR02-K6,66,2002,11,18,19,3,15.42,135.92,1928.8,2,2309,2,28.94,2,34.773,2
Mirai,MR02-K6,67,2002,11,18,19,36,15.3,135.86,1929.3,2,2309,2,29.06,2,34.865,2
Mirai,MR02-K6,68,2002,11,18,20,33,15.1,135.75,1930.4,3,2311.8,3,29.09,2,34.858,2
Mirai,MR02-K6,69,2002,11,18,21,6,14.97,135.7,1928.7,2,2307.1,2,29.09,2,34.855,2
Mirai,MR02-K6,70,2002,11,18,22,0,14.77,135.61,1930.1,2,2310.8,2,29.08,2,34.793,2
Mirai,MR02-K6,71,2002,11,18,22,33,14.65,135.56,1928.4,2,2308.5,2,29.11,2,34.854,2
Mirai,MR02-K6,72,2002,11,18,23,29,14.44,135.46,1932.4,2,2313.8,2,29.12,2,34.855,2
Mirai,MR02-K6,73,2002,11,19,0,2,14.32,135.39,1925.7,2,2303.5,2,29.06,2,34.823,2
Mirai,MR02-K6,74,2002,11,19,0,59,14.1,135.31,1930.7,2,2309.2,2,29.07,2,34.836,2
Mirai,MR02-K6,75,2002,11,19,1,32,13.98,135.26,1928.1,3,2307.7,3,29.13,2,34.795,2
Mirai,MR02-K6,76,2002,11,19,2,27,13.78,135.17,1925.5,2,2302.6,2,29.2,2,34.74,2
Mirai,MR02-K6,77,2002,11,19,2,59,13.66,135.11,1918.3,2,2296.2,2,29.22,2,34.664,2
Mirai,MR02-K6,78,2002,11,19,3,56,13.44,135.02,1923.4,2,2300.2,2,29.21,2,34.606,2
Mirai,MR02-K6,79,2002,11,19,4,28,13.32,134.96,1919.4,2,2294.7,2,29.26,2,34.621,2
Mirai,MR02-K6,80,2002,11,19,5,26,13.1,134.87,1925,3,2303.1,3,29.27,2,34.664,2
Mirai,MR02-K6,81,2002,11,19,5,58,12.98,134.82,1925.4,3,2300.3,3,29.32,2,34.713,2
Mirai,MR02-K6,82,2002,11,19,6,53,12.76,134.73,1921.6,3,2299,3,29.38,2,34.688,2
Mirai,MR02-K6,83,2002,11,19,7,25,12.64,134.67,1922.6,2,2300.3,2,29.39,2,34.678,2
Mirai,MR02-K6,84,2002,11,19,8,22,12.42,134.57,1923.7,2,2300.5,2,29.39,2,34.669,2
Mirai,MR02-K6,85,2002,11,19,8,54,12.3,134.52,1919.4,3,2295.4,3,29.4,2,34.661,2
Mirai,MR02-K6,86,2002,11,19,9,52,12.07,134.42,1921.3,3,2296.6,3,29.41,2,34.674,2
Mirai,MR02-K6,87,2002,11,19,10,25,11.95,134.37,1922.6,3,2299.6,3,29.32,2,34.66,2
Mirai,MR02-K6,88,2002,11,19,11,19,11.75,134.27,1917.7,3,2286.2,3,29.29,2,34.492,2
Mirai,MR02-K6,89,2002,11,22,0,57,1.98,138.52,1929.1,2,2287.3,2,28.69,2,34.509,2
Mirai,MR02-K6,90,2002,11,22,1,29,1.97,138.51,1931.6,2,2291.5,2,28.79,2,34.498,2
Mirai,MR02-K6,91,2002,11,22,2,26,1.93,138.5,1935.5,2,2292.5,2,28.61,2,34.555,2
Mirai,MR02-K6,92,2002,11,22,2,58,1.93,138.51,1928.8,2,2286.9,3,28.89,2,34.531,2
Mirai,MR02-K6,93,2002,11,22,3,56,1.86,138.53,1932.8,3,2287.5,3,28.6,2,34.533,2
Mirai,MR02-K6,94,2002,11,22,4,28,1.82,138.55,1935.7,3,2291.9,3,28.66,2,34.534,2
Mirai,MR02-K6,95,2002,11,22,5,23,1.88,138.58,1934,2,2289.9,2,28.7,2,34.542,2
Mirai,MR02-K6,96,2002,11,22,5,55,1.88,138.59,1933.1,2,2289.2,2,28.7,2,34.542,2
Mirai,MR02-K6,97,2002,11,22,6,52,1.84,138.61,1936.6,3,2293.5,3,28.71,2,34.542,2
Mirai,MR02-K6,98,2002,12,12,6,13,1.99,138.5,1943,2,2293.7,2,28.6,2,34.61,2
Mirai,MR02-K6,99,2002,12,12,7,11,2.03,138.43,1940.3,2,2290.1,2,28.55,2,34.537,2
Mirai,MR02-K6,100,2002,12,12,7,43,2.04,138.41,1939.7,2,2290.4,2,28.52,2,34.513,2
Mirai,MR02-K6,101,2002,12,12,8,38,1.99,138.51,1940.8,2,2292.2,2,28.42,2,34.553,2
Mirai,MR02-K6,102,2002,12,12,9,10,1.99,138.51,1944.2,2,2295.8,3,28.35,2,34.546,2
Mirai,MR02-K6,103,2002,12,12,10,7,2.02,138.45,1942.3,2,2292.8,2,28.72,2,34.53,2
Mirai,MR02-K6,104,2002,12,12,10,39,2.04,138.41,1940.7,2,2292.7,3,28.6,2,34.504,2
Mirai,MR02-K6,105,2002,12,12,11,37,2,138.5,1941.1,2,2290.6,2,28.3,2,34.552,2
Mirai,MR02-K6,106,2002,12,12,12,9,2,138.5,1941.4,2,2292.6,2,28.3,2,34.527,2
Mirai,MR02-K6,107,2002,12,12,13,4,2,138.47,1941.7,2,2293,2,28.58,2,34.527,2
Mirai,MR02-K6,108,2002,12,12,13,37,2.03,138.42,1937.5,2,2289.5,3,28.67,2,34.525,2
Mirai,MR02-K6,109,2002,12,12,14,33,2,138.5,1942.9,2,2294.7,2,28.38,2,34.529,2
Mirai,MR02-K6,110,2002,12,12,15,6,2,138.5,1942.6,2,2294,2,28.29,2,34.524,2
Mirai,MR02-K6,111,2002,12,12,16,3,2.16,138.56,1938.9,2,2293,2,28.69,2,34.519,2
Mirai,MR02-K6,112,2002,12,12,16,36,2.29,138.59,1931.6,2,2285.2,3,28.63,2,34.517,2
Mirai,MR02-K6,113,2002,12,12,17,30,2.5,138.67,1932.4,2,2289.8,2,28.89,2,34.487,2
Mirai,MR02-K6,114,2002,12,12,18,3,2.64,138.71,1932.5,2,2290.3,2,28.64,2,34.484,2
Mirai,MR02-K6,115,2002,12,12,18,59,2.87,138.77,1931.1,2,2288,2,28.96,2,34.521,2
Mirai,MR02-K6,116,2002,12,12,19,32,3.01,138.81,1932.1,2,2287.4,2,28.52,2,34.508,2
Mirai,MR02-K6,117,2002,12,12,20,30,3.25,138.88,1938,2,2293.3,2,28.33,2,34.524,2
Mirai,MR02-K6,118,2002,12,12,21,2,3.38,138.93,1937.1,2,2290.6,2,28.36,2,34.526,2
Mirai,MR02-K6,119,2002,12,12,21,57,3.62,139,1937.7,2,2294.6,2,28.51,2,34.517,2
Mirai,MR02-K6,120,2002,12,12,22,29,3.76,139.04,1934.5,2,2289.9,3,28.56,2,34.518,2
Mirai,MR02-K6,121,2002,12,12,23,26,4.01,139.08,1927.5,2,2288.6,3,28.89,2,34.467,2
Mirai,MR02-K6,122,2002,12,12,23,58,4.15,139.13,1910.3,2,2275.6,3,29.31,2,34.335,2
Mirai,MR02-K6,123,2002,12,13,0,56,4.4,139.22,1911.5,2,2275.5,2,29.72,2,34.331,2
Mirai,MR02-K6,124,2002,12,13,5,41,5.21,139.48,1900.6,2,2262.8,2,29.81,2,34.366,2
Mirai,MR02-K6,125,2002,12,13,6,13,5.34,139.51,1900.9,2,2263.2,2,29.79,2,34.229,2
Mirai,MR02-K6,126,2002,12,13,7,11,5.58,139.58,1901,2,2265.6,2,29.69,2,34.152,2
Mirai,MR02-K6,127,2002,12,13,7,43,5.71,139.62,1896.2,2,2259.9,2,29.68,2,34.107,2
Mirai,MR02-K6,128,2002,12,13,8,38,5.93,139.68,1898.9,2,2262.6,2,29.69,2,34.093,2
Mirai,MR02-K6,129,2002,12,13,9,10,6.06,139.72,1896.8,2,2261.1,2,29.6,2,34.096,2
Mirai,MR02-K6,130,2002,12,13,10,7,6.29,139.79,1896.6,2,2260.8,2,29.55,2,34.101,2
Mirai,MR02-K6,131,2002,12,13,10,39,6.42,139.82,1896.9,2,2261.1,2,29.49,2,34.1,2
Mirai,MR02-K6,132,2002,12,13,11,37,6.65,139.9,1895.7,3,2258.8,3,29.47,2,34.097,2
Mirai,MR02-K6,133,2002,12,13,12,9,6.78,139.93,1898,2,2261.5,2,29.41,2,34.086,2
Mirai,MR02-K6,134,2002,12,13,13,4,7,140,1895.6,2,2258.1,2,29.31,2,34.076,2
Mirai,MR02-K6,135,2002,12,13,13,37,7,140,1897.8,2,2261,2,29.3,2,34.072,2
Mirai,MR02-K6,136,2002,12,13,14,33,7.01,140,1894.8,2,2256.9,2,29.28,2,34.073,2
Mirai,MR02-K6,137,2002,12,13,15,6,7.01,139.99,1895.1,2,2257.4,2,29.28,2,34.073,2
Mirai,MR02-K6,138,2002,12,13,16,3,7.01,139.99,1895.8,3,2258,3,29.28,2,34.074,2
Mirai,MR02-K6,139,2002,12,13,16,36,7.02,140,1896.1,2,2258.2,2,29.27,2,34.074,2
Mirai,MR02-K6,140,2002,12,13,17,30,7.2,140.12,1894.4,2,2255.4,2,29.25,2,34.073,2
Mirai,MR02-K6,141,2002,12,13,18,3,7.31,140.19,1895.9,2,2257.1,2,29.26,2,34.056,2
Mirai,MR02-K6,142,2002,12,13,18,59,7.51,140.32,1896.2,2,2258,2,29.24,2,34.104,2
Mirai,MR02-K6,143,2002,12,13,19,32,7.61,140.39,1899.2,2,2261.8,2,29.17,2,34.132,2
Mirai,MR02-K6,144,2002,12,13,20,30,7.81,140.51,1901.5,2,2262.6,2,29.15,2,34.169,2
Mirai,MR02-K6,145,2002,12,13,21,2,7.92,140.58,1904.3,2,2266.2,2,29.11,2,34.163,2
Mirai,MR02-K6,146,2002,12,13,21,57,8.1,140.7,1905.9,2,2266.6,2,28.99,2,34.156,2
Mirai,MR02-K6,147,2002,12,13,22,29,8.22,140.77,1905.8,2,2265.8,2,28.85,2,34.158,2
Mirai,MR02-K6,148,2002,12,13,23,26,8.41,140.89,1905.1,2,2266.6,2,28.97,2,34.159,2
Mirai,MR02-K6,149,2002,12,13,23,58,8.53,140.95,1902.7,2,2264.2,2,28.93,2,34.154,2
Mirai,MR02-K6,150,2002,12,14,0,56,8.72,141.07,1902,2,2261.7,2,28.94,2,34.124,2
Mirai,MR02-K6,151,2002,12,14,5,41,9.68,141.69,1897.9,3,2254.7,3,28.84,2,33.997,2
Mirai,MR02-K6,152,2002,12,14,6,13,9.79,141.76,1898.7,3,2254.9,3,28.77,2,34.017,2
Mirai,MR02-K6,153,2002,12,14,7,11,9.96,141.9,1900.2,3,2257.8,3,28.63,2,34.063,2
Mirai,MR02-K6,154,2002,12,14,7,43,10.05,141.97,1903.9,3,2263,3,28.6,2,34.095,2
Mirai,MR02-K6,155,2002,12,14,8,38,10.1,142.14,1905.3,3,2264.3,3,28.55,2,34.107,2
Mirai,MR02-K6,156,2002,12,14,9,10,10.13,142.23,1905.2,3,2264,3,28.55,2,34.125,2
Mirai,MR02-K6,157,2002,12,14,10,7,10.18,142.4,1906.3,3,2265.4,3,28.54,2,34.141,2
Mirai,MR02-K6,158,2002,12,14,10,39,10.26,142.46,1906,3,2264.6,3,28.58,2,34.133,2
Mirai,MR02-K6,159,2002,12,14,11,37,10.49,142.52,1903.4,3,2261.6,3,28.55,2,34.092,2
Mirai,MR02-K6,160,2002,12,14,12,10,10.62,142.56,1904.4,3,2263.5,3,28.53,2,34.102,2
Mirai,MR02-K6,161,2002,12,14,13,4,10.84,142.62,1904.4,3,2263.8,3,28.53,2,34.103,2
Mirai,MR02-K6,162,2002,12,14,13,37,10.97,142.65,1904,3,2263.5,3,28.53,2,34.129,2
Mirai,MR02-K6,163,2002,12,14,14,33,11.19,142.72,1901.3,3,2259.8,3,28.5,2,34.114,2
Mirai,MR02-K6,164,2002,12,14,15,6,11.32,142.76,1906.8,3,2266.2,3,28.51,2,34.162,2
Mirai,MR02-K6,165,2002,12,14,16,3,11.53,142.86,1908.8,3,2268,3,28.49,2,34.225,2
Mirai,MR02-K6,166,2002,12,14,16,36,11.65,142.93,1916.3,3,2279.1,3,28.47,2,34.329,2
Mirai,MR02-K6,167,2002,12,14,17,30,11.85,143.04,1915.8,3,2280.2,3,28.39,2,34.347,2
Mirai,MR02-K6,168,2002,12,14,18,3,11.96,143.1,1914.8,3,2279.2,3,28.42,2,34.328,2
Mirai,MR02-K6,169,2002,12,14,18,59,12.17,143.22,1914.3,3,2278.3,3,28.39,2,34.321,2
Mirai,MR02-K6,170,2002,12,14,19,32,12.29,143.29,1920.8,3,2284.5,3,27.97,2,34.446,2
Mirai,MR02-K6,171,2002,12,14,20,30,12.48,143.42,1917.9,3,2283.4,3,28.1,2,34.409,2
Mirai,MR02-K6,172,2002,12,14,21,2,12.6,143.48,1918.8,3,2284.7,3,28.16,2,34.397,2
Mirai,MR02-K6,173,2002,12,14,21,57,12.73,143.56,1920.1,3,2287.2,3,28.1,2,34.466,2
Mirai,MR02-K6,174,2002,12,14,22,29,12.79,143.59,1921.1,3,2288.2,3,28.07,2,34.49,2
Mirai,MR02-K6,175,2002,12,14,23,26,12.89,143.65,1923.5,3,2292.7,3,28.12,2,34.486,2
Mirai,MR02-K6,176,2002,12,14,23,58,12.95,143.69,1920.2,3,2289,3,28.15,2,34.476,2
Mirai,MR02-K6,177,2002,12,17,11,40,12.05,145.13,1929.5,3,2290.6,3,27.82,2,34.49,2
Mirai,MR02-K6,178,2002,12,17,12,13,11.93,145.17,1929.4,3,2289.6,3,27.79,2,34.484,2
Mirai,MR02-K6,179,2002,12,17,13,11,11.7,145.24,1927.9,3,2287.7,3,27.81,2,34.464,2
Mirai,MR02-K6,180,2002,12,17,13,43,11.56,145.28,1928,2,2288.2,3,27.81,2,34.449,2
Mirai,MR02-K6,181,2002,12,17,14,38,11.33,145.36,1919.5,2,2278.8,2,27.95,2,34.401,2
Mirai,MR02-K6,182,2002,12,17,15,10,11.2,145.4,1918.6,2,2278.8,3,28.06,2,34.383,2
Mirai,MR02-K6,183,2002,12,17,16,7,10.97,145.48,1914.8,2,2277.6,2,28.2,2,34.326,2
Mirai,MR02-K6,184,2002,12,17,16,39,10.84,145.52,1916.7,2,2279.1,2,28.14,2,34.368,2
Mirai,MR02-K6,185,2002,12,17,17,37,10.6,145.59,1912.5,3,2271,3,28.16,2,34.256,2
Mirai,MR02-K6,186,2002,12,17,18,9,10.47,145.63,1912.5,2,2271,3,28.2,2,34.248,2
Mirai,MR02-K6,187,2002,12,17,19,4,10.26,145.71,1910.5,2,2271.4,2,28.22,2,34.243,2
Mirai,MR02-K6,188,2002,12,17,20,33,9.92,145.83,1913.8,2,2271.1,2,28.15,2,34.247,2
Mirai,MR02-K6,189,2002,12,17,21,6,9.79,145.88,1910.7,2,2266.4,2,28.13,2,34.235,2
Mirai,MR02-K6,190,2002,12,17,22,3,9.55,145.95,1909.9,2,2261.9,2,28.12,2,34.199,2
Mirai,MR02-K6,191,2002,12,17,22,36,9.42,145.98,1911.4,2,2265,2,28.15,2,34.186,2
Mirai,MR02-K6,192,2002,12,17,23,30,9.28,146.08,1910.5,2,2262.7,2,28.23,2,34.158,2
Mirai,MR02-K6,193,2002,12,18,0,3,9.18,146.1,1908.6,2,2260.1,3,28.29,2,34.113,2
Mirai,MR02-K6,194,2002,12,18,0,59,8.99,146.14,1906.4,2,2257.9,3,28.34,2,34.087,2
Mirai,MR02-K6,195,2002,12,18,1,32,8.87,146.18,1905.8,2,2258.1,3,28.44,2,34.051,2
Mirai,MR02-K6,196,2002,12,18,2,29,8.64,146.25,1902.3,2,2254.6,2,28.57,2,34.051,2
Mirai,MR02-K6,197,2002,12,18,3,2,8.52,146.29,1905.3,2,2255.7,2,28.56,2,34.051,2
Mirai,MR02-K6,198,2002,12,18,3,57,8.3,146.36,1908.4,2,2257,2,28.49,2,34.072,2
Mirai,MR02-K6,199,2002,12,18,4,29,8.18,146.41,1907.8,2,2256.8,2,28.59,2,34.081,2
Mirai,MR02-K6,200,2002,12,18,11,10,6.62,146.76,1902.9,2,2253.5,3,28.85,2,34.022,2
Mirai,MR02-K6,201,2002,12,18,11,43,6.48,146.78,1903.6,2,2253.8,2,28.8,2,34.025,2
Mirai,MR02-K6,202,2002,12,18,13,10,6.14,146.84,1903.6,2,2256.8,2,29.03,2,34.064,2
Mirai,MR02-K6,203,2002,12,18,13,43,6.01,146.85,1900.1,2,2258.3,2,29.14,2,34.094,2
Mirai,MR02-K6,204,2002,12,18,14,41,5.79,146.89,1896.5,2,2254.8,2,29.19,2,34.076,2
Mirai,MR02-K6,205,2002,12,18,15,13,5.65,146.91,1899.2,2,2262,2,29.27,2,34.106,2
Mirai,MR02-K6,206,2002,12,18,16,8,5.43,146.95,1895,2,2258.1,2,29.34,2,34.129,2
Mirai,MR02-K6,207,2002,12,18,16,40,5.29,146.97,1895.6,2,2260.6,2,29.39,2,34.155,2
Mirai,MR02-K6,208,2002,12,18,17,37,5.05,147,1896.3,2,2259.7,2,29.39,2,34.132,2
Mirai,MR02-K6,209,2002,12,18,18,9,5,147,1898.3,2,2260.9,2,29.37,2,34.116,2
Mirai,MR02-K6,210,2002,12,18,19,7,4.99,146.99,1896.9,2,2259.1,2,29.34,2,34.112,2
Mirai,MR02-K6,211,2002,12,18,19,39,4.98,146.99,1895.3,2,2256.9,2,29.33,2,34.107,2
Mirai,MR02-K6,212,2002,12,18,20,34,5.01,146.95,1895.3,2,2256.9,2,29.34,2,34.113,2
Mirai,MR02-K6,213,2002,12,18,21,7,5,147,1896.7,2,2259.3,2,29.35,2,34.112,2
Mirai,MR02-K6,214,2002,12,18,22,3,5.01,147.09,1897.9,2,2261.3,2,29.39,2,34.138,2
Mirai,MR02-K6,215,2002,12,19,4,10,5.03,146.97,1897.2,2,2259.5,2,29.41,2,34.125,2
Mirai,MR02-K6,216,2002,12,19,4,43,5.03,146.97,1898.2,3,2260.9,3,29.39,2,34.128,2
Mirai,MR02-K6,217,2002,12,19,5,41,5.03,146.96,1895.8,2,2257.8,2,29.38,2,34.124,2
Mirai,MR02-K6,218,2002,12,19,6,13,5.03,146.96,1897.7,2,2259.9,2,29.36,2,34.132,2
Mirai,MR02-K6,219,2002,12,19,7,8,5.11,146.95,1898.3,2,2260.9,2,29.42,2,34.134,2
Mirai,MR02-K6,220,2002,12,19,7,40,5.11,146.94,1899.4,2,2262.5,2,29.41,2,34.13,2
Mirai,MR02-K6,221,2002,12,19,8,37,5.12,146.92,1897.6,2,2260.3,2,29.39,2,34.127,2
Mirai,MR02-K6,222,2002,12,19,9,9,5.11,146.94,1896.5,2,2258.5,2,29.37,2,34.124,2
Mirai,MR02-K6,223,2002,12,19,10,7,5.1,146.95,1897.1,2,2259.2,2,29.34,2,34.138,2
Mirai,MR02-K6,224,2002,12,19,10,39,5.1,146.95,1898.8,2,2261.3,2,29.33,2,34.148,2
Mirai,MR02-K6,225,2002,12,19,11,34,5.09,146.94,1900.8,2,2263.6,2,29.3,2,34.169,2
Mirai,MR02-K6,226,2002,12,19,12,7,5.09,146.94,1902.2,2,2265.5,2,29.28,2,34.179,2
Mirai,MR02-K6,227,2002,12,19,13,3,5.08,146.93,1902.5,2,2264.6,2,29.26,2,34.23,2
Mirai,MR02-K6,228,2002,12,19,13,36,5.08,146.93,1907.2,2,2270.6,2,29.24,2,34.241,2
Mirai,MR02-K6,229,2002,12,19,14,33,5.11,146.96,1904.6,2,2266.2,2,29.27,2,34.223,2
Mirai,MR02-K6,230,2002,12,19,15,6,5.1,146.96,1905.3,2,2268.7,2,29.25,2,34.223,2
Mirai,MR02-K6,231,2002,12,19,16,0,5.1,146.96,1906.8,2,2269.2,2,29.22,2,34.249,2
Mirai,MR02-K6,232,2002,12,19,16,33,5.09,146.96,1910.1,2,2273.2,2,29.19,2,34.269,2
Mirai,MR02-K6,233,2002,12,19,17,29,5.09,146.96,1911.2,2,2273.3,2,29.15,2,34.306,2
Mirai,MR02-K6,234,2002,12,19,18,2,5.09,146.96,1911.2,2,2273.2,2,29.09,2,34.296,2
Mirai,MR02-K6,235,2002,12,19,18,59,5.09,146.96,1912.8,3,2273.6,3,29.02,2,34.331,2
Mirai,MR02-K6,236,2002,12,19,19,32,5.09,146.96,1915.1,2,2276.6,2,28.98,2,34.337,2
Mirai,MR02-K6,237,2002,12,19,20,27,5.09,146.96,1913.4,2,2275.4,2,28.92,2,34.308,2
Mirai,MR02-K6,238,2002,12,19,20,59,5.05,146.95,1922.3,2,2283.3,2,28.74,2,34.402,2
Mirai,MR02-K6,239,2002,12,19,21,56,5.05,146.95,1925.9,2,2285.9,2,28.73,2,34.445,2
Mirai,MR02-K6,240,2002,12,20,4,10,4.52,147.03,1932.3,3,2291,3,28.97,2,34.605,2
Mirai,MR02-K6,241,2002,12,20,4,43,4.39,147.02,1933.8,2,2293.9,2,29.21,2,34.64,2
Mirai,MR02-K6,242,2002,12,20,5,41,4.16,147.01,1936.9,2,2296.5,2,29.28,2,34.666,2
Mirai,MR02-K6,243,2002,12,20,6,13,4.03,147,1938.7,2,2297.1,2,29.3,2,34.681,2
Mirai,MR02-K6,244,2002,12,20,7,8,3.83,147,1936,2,2293,2,29.01,2,34.621,2
Mirai,MR02-K6,245,2002,12,20,7,40,3.7,147,1935.5,2,2295.6,2,29.13,2,34.636,2
Mirai,MR02-K6,246,2002,12,20,8,37,3.47,147,1930.4,2,2292.3,2,29.31,2,34.601,2
Mirai,MR02-K6,247,2002,12,20,9,9,3.34,147,1933.4,2,2296,2,29.3,2,34.657,2
Mirai,MR02-K6,248,2002,12,20,10,7,3.1,147,1935.5,2,2297.7,2,29.53,2,34.693,2
Mirai,MR02-K6,249,2002,12,20,10,39,2.99,147,1935.5,2,2296.9,2,29.5,2,34.671,2
Mirai,MR02-K6,250,2002,12,20,11,34,2.77,147,1935.2,2,2299.2,2,29.62,2,34.672,2
Mirai,MR02-K6,251,2002,12,20,12,6,2.64,147,1933.3,2,2296.5,2,29.71,2,34.68,2
Mirai,MR02-K6,252,2002,12,20,13,3,2.41,146.99,1932.2,2,2296.8,2,29.64,2,34.67,2
Mirai,MR02-K6,253,2002,12,20,13,36,2.28,147,1931.7,2,2295.1,2,29.7,2,34.652,2
Mirai,MR02-K6,254,2002,12,20,14,33,2.08,147,1929.6,2,2294.3,2,29.56,2,34.636,2
Mirai,MR02-K6,255,2002,12,20,15,6,2.08,147,1930,2,2294.4,2,29.57,2,34.637,2
Mirai,MR02-K6,256,2002,12,20,16,0,2.08,146.99,1931.1,2,2295.5,2,29.57,2,34.636,2
Mirai,MR02-K6,257,2002,12,20,16,33,2.08,146.99,1928.6,3,2292.6,3,29.57,2,34.631,2
Mirai,MR02-K6,258,2002,12,20,17,29,2.09,146.97,1930.3,2,2294.6,2,29.56,2,34.633,2
Mirai,MR02-K6,259,2002,12,20,18,2,2.09,146.97,1931.5,2,2295.9,2,29.54,2,34.632,2
Mirai,MR02-K6,260,2002,12,20,18,59,2.1,146.95,1929.5,3,2293.5,3,29.53,2,34.635,2
Mirai,MR02-K6,261,2002,12,20,19,32,2.1,146.95,1930.7,2,2295.2,2,29.51,2,34.635,2
Mirai,MR02-K6,262,2002,12,20,20,27,2.11,146.94,1931.1,3,2295.7,3,29.53,2,34.634,2
Mirai,MR02-K6,263,2002,12,20,20,59,2.11,146.93,1930.1,2,2294.7,2,29.53,2,34.631,2
Mirai,MR02-K6,264,2002,12,21,2,10,2.02,147,1929.9,2,2295.1,2,29.94,2,34.636,2
Mirai,MR02-K6,265,2002,12,21,2,43,2.02,146.99,1929.3,2,2293.8,2,30.02,2,34.637,2
Mirai,MR02-K6,266,2002,12,21,3,41,2.02,146.99,1929.6,2,2294.5,2,30.09,2,34.637,2
Mirai,MR02-K6,267,2002,12,21,4,13,2.02,146.99,1930.1,2,2295.3,2,30.14,2,34.63,2
Mirai,MR02-K6,268,2002,12,21,5,8,2.02,146.99,1929.2,2,2293.8,2,30.18,2,34.624,2
Mirai,MR02-K6,269,2002,12,21,5,40,2.02,146.99,1930,2,2295,2,30.13,2,34.619,2
Mirai,MR02-K6,270,2002,12,21,6,37,2.03,146.98,1926.4,2,2290.4,2,29.91,2,34.619,2
Mirai,MR02-K6,271,2002,12,21,7,9,2.04,146.98,1928.2,2,2292.5,2,29.82,2,34.623,2
Mirai,MR02-K6,272,2002,12,21,8,7,2.03,146.96,1929.1,2,2294.1,2,29.88,2,34.625,2
Mirai,MR02-K6,273,2002,12,21,8,39,2.03,146.95,1929.2,2,2294.6,2,29.83,2,34.627,2
Mirai,MR02-K6,274,2002,12,21,9,34,1.99,146.95,1929.7,2,2294.5,2,29.77,2,34.635,2
Mirai,MR02-K6,275,2002,12,21,10,6,1.99,146.95,1930.9,2,2296.4,2,29.72,2,34.636,2
Mirai,MR02-K6,276,2002,12,21,11,3,1.99,146.94,1931.3,2,2296.4,2,29.7,2,34.635,2
Mirai,MR02-K6,277,2002,12,21,15,29,2,146.94,1930.7,2,2295.7,2,29.52,2,34.633,2
Mirai,MR02-K6,278,2002,12,21,16,2,2.01,146.93,1930,2,2294.1,2,29.53,2,34.634,2
Mirai,MR02-K6,279,2002,12,21,16,59,1.99,146.96,1930,2,2294.1,2,29.42,2,34.63,2
Mirai,MR02-K6,280,2002,12,21,17,32,2,146.95,1931.4,2,2295.8,2,29.43,2,34.628,2
Mirai,MR02-K6,281,2002,12,21,18,27,2.02,146.96,1929.9,2,2293.7,2,29.44,2,34.626,2
Mirai,MR02-K6,282,2002,12,21,18,59,2.03,146.96,1932.4,2,2297,2,29.42,2,34.625,2